When you browse on this site, cookies collect data to enhance your experience and personalize the content and advertising you see.
Visit our Privacy Policy to learn more. By continuing to use the site, you agree to this use of cookies and data.
  • In Romania
  • List of Countries
  • For 7 days
  • Water Temperature
  • Satellite Maps
  • Weather Map
  • Weather Widgets
  • user-avatar
    Login

    Hourly Weather Ambarnyy

    Today, 17 February, Sunday

    Time Temperature Precipitation Wind Pressure Humidity
    00:00 -3°C° 0.2 mm 4 mps 725 mmHg 85%
    01:00 -3°C° 0.2 mm 4 mps 725 mmHg 88%
    02:00 -3°C° 0 mm 4 mps 724 mmHg 91%
    03:00 -4°C° 0.1 mm 5 mps 725 mmHg 90%
    04:00 -4°C° 0.1 mm 5 mps 725 mmHg 89%
    05:00 -3°C° 0.1 mm 6 mps 726 mmHg 88%
    06:00 -3°C° 0.2 mm 7 mps 727 mmHg 85%
    07:00 -5°C° 0.2 mm 8 mps 729 mmHg 83%
    08:00 -4°C° 0 mm 9 mps 730 mmHg 82%
    09:00 -4°C° 0.1 mm 9 mps 732 mmHg 80%
    10:00 -5°C° 0.1 mm 9 mps 734 mmHg 78%
    11:00 -5°C° 0.1 mm 10 mps 736 mmHg 76%
    12:00 -5°C° 0.1 mm 9 mps 738 mmHg 75%
    13:00 -6°C° 0.1 mm 9 mps 740 mmHg 74%
    14:00 -6°C° 0 mm 9 mps 742 mmHg 73%
    15:00 -7°C° 0 mm 8 mps 743 mmHg 73%
    16:00 -8°C° 0 mm 8 mps 745 mmHg 74%
    17:00 -9°C° 0 mm 7 mps 746 mmHg 74%
    18:00 -11°C° 0 mm 7 mps 747 mmHg 75%
    19:00 -10°C° 0 mm 6 mps 749 mmHg 76%
    20:00 -11°C° 0 mm 6 mps 750 mmHg 77%
    21:00 -12°C° 0 mm 6 mps 750 mmHg 78%
    22:00 -13°C° 0 mm 5 mps 751 mmHg 79%
    23:00 -12°C° 0 mm 4 mps 752 mmHg 80%

    Tomorrow, 18 February, Monday

    Time Temperature Precipitation Wind Pressure Humidity
    00:00 -14°C° 0 mm 4 mps 753 mmHg 82%
    01:00 -14°C° 0 mm 3 mps 753 mmHg 83%
    02:00 -15°C° 0 mm 3 mps 754 mmHg 85%
    03:00 -15°C° 0 mm 3 mps 754 mmHg 85%
    04:00 -15°C° 0 mm 3 mps 754 mmHg 86%
    05:00 -15°C° 0 mm 3 mps 754 mmHg 86%
    06:00 -15°C° 0 mm 3 mps 754 mmHg 86%
    07:00 -14°C° 0 mm 3 mps 754 mmHg 86%
    08:00 -14°C° 0 mm 3 mps 754 mmHg 86%
    09:00 -13°C° 0 mm 3 mps 753 mmHg 86%
    10:00 -13°C° 0 mm 3 mps 753 mmHg 86%
    11:00 -12°C° 0 mm 3 mps 753 mmHg 86%
    12:00 -12°C° 0 mm 3 mps 752 mmHg 85%
    13:00 -10°C° 0 mm 3 mps 751 mmHg 85%
    14:00 -10°C° 0 mm 3 mps 750 mmHg 84%
    15:00 -11°C° 0.1 mm 4 mps 749 mmHg 86%
    16:00 -11°C° 0.1 mm 4 mps 748 mmHg 88%
    17:00 -11°C° 0.1 mm 5 mps 747 mmHg 90%
    18:00 -11°C° 0.3 mm 5 mps 746 mmHg 91%
    19:00 -11°C° 0.3 mm 5 mps 744 mmHg 91%
    20:00 -10°C° 0.3 mm 5 mps 742 mmHg 92%
    21:00 -10°C° 0.8 mm 5 mps 741 mmHg 93%
    22:00 -8°C° 0.8 mm 4 mps 740 mmHg 94%
    23:00 -8°C° 0.8 mm 4 mps 738 mmHg 95%

    Day after tomorrow, 19 February, Tuesday

    Time Temperature Precipitation Wind Pressure Humidity
    00:00 -7°C° 0.9 mm 4 mps 738 mmHg 95%
    01:00 -5°C° 0.9 mm 3 mps 737 mmHg 95%
    02:00 -2°C° 0.9 mm 3 mps 736 mmHg 95%
    03:00 -2°C° 0.1 mm 3 mps 736 mmHg 94%
    04:00 -2°C° 0.1 mm 3 mps 735 mmHg 94%
    05:00 -2°C° 0.1 mm 2 mps 735 mmHg 94%
    06:00 -2°C° 0 mm 2 mps 735 mmHg 94%
    07:00 -2°C° 0 mm 2 mps 735 mmHg 95%
    08:00 +1°C° 0 mm 1 mps 735 mmHg 96%
    09:00 +1°C° 0.1 mm 1 mps 735 mmHg 97%
    10:00 +1°C° 0.1 mm 1 mps 735 mmHg 98%
    11:00 -1°C° 0.1 mm 2 mps 735 mmHg 99%
    12:00 -1°C° 0.1 mm 2 mps 735 mmHg 98%
    13:00 -1°C° 0.1 mm 2 mps 735 mmHg 98%
    14:00 +1°C° 0.1 mm 2 mps 735 mmHg 98%
    15:00 -1°C° 0.1 mm 2 mps 735 mmHg 98%
    16:00 -1°C° 0.1 mm 2 mps 734 mmHg 97%
    17:00 -1°C° 0.1 mm 2 mps 734 mmHg 96%
    18:00 -1°C° 0.4 mm 2 mps 734 mmHg 96%
    19:00 -1°C° 0.4 mm 2 mps 733 mmHg 96%
    20:00 -1°C° 0.4 mm 2 mps 733 mmHg 96%
    21:00 -1°C° 0.1 mm 2 mps 733 mmHg 96%
    22:00 -1°C° 0.1 mm 2 mps 733 mmHg 96%
    23:00 +1°C° 0.1 mm 1 mps 732 mmHg 96%

    20 February, Wednesday

    Time Temperature Precipitation Wind Pressure Humidity
    00:00 +1°C° 0.1 mm 1 mps 732 mmHg 97%
    01:00 0°C° 0.1 mm 1 mps 732 mmHg 97%
    02:00 0°C° 0.1 mm 1 mps 732 mmHg 97%
    03:00 -1°C° 0.1 mm 1 mps 732 mmHg 97%
    04:00 -1°C° 0.1 mm 1 mps 731 mmHg 98%
    05:00 -4°C° 0.1 mm 2 mps 731 mmHg 98%
    06:00 -5°C° 0.4 mm 2 mps 732 mmHg 97%
    07:00 -6°C° 0.4 mm 3 mps 732 mmHg 97%
    08:00 -8°C° 0.4 mm 4 mps 732 mmHg 96%
    09:00 -9°C° 0.4 mm 4 mps 733 mmHg 95%
    10:00 -10°C° 0.4 mm 5 mps 733 mmHg 95%
    11:00 -11°C° 0.4 mm 5 mps 734 mmHg 94%
    12:00 -11°C° 0.4 mm 6 mps 735 mmHg 92%
    13:00 -12°C° 0.4 mm 7 mps 736 mmHg 91%
    14:00 -12°C° 0.4 mm 7 mps 737 mmHg 89%
    15:00 -13°C° 0.3 mm 7 mps 738 mmHg 88%
    16:00 -13°C° 0.3 mm 7 mps 739 mmHg 87%
    17:00 -14°C° 0.3 mm 7 mps 741 mmHg 86%
    18:00 -14°C° 0.1 mm 7 mps 742 mmHg 85%
    19:00 -14°C° 0.1 mm 7 mps 743 mmHg 84%
    20:00 -14°C° 0.1 mm 6 mps 744 mmHg 83%
    21:00 -14°C° 0.1 mm 6 mps 745 mmHg 83%
    22:00 -14°C° 0.1 mm 6 mps 746 mmHg 83%
    23:00 -12°C° 0.1 mm 6 mps 747 mmHg 83%

    21 February, Thursday

    Time Temperature Precipitation Wind Pressure Humidity
    00:00 -13°C° 0 mm 5 mps 748 mmHg 83%
    01:00 -14°C° 0 mm 5 mps 749 mmHg 83%
    02:00 -15°C° 0 mm 5 mps 750 mmHg 82%
    03:00 -16°C° 0 mm 4 mps 750 mmHg 84%
    04:00 -17°C° 0 mm 4 mps 751 mmHg 85%
    05:00 -17°C° 0 mm 3 mps 752 mmHg 86%
    06:00 -17°C° 0 mm 3 mps 752 mmHg 88%
    07:00 -18°C° 0 mm 3 mps 753 mmHg 90%
    08:00 -18°C° 0 mm 3 mps 754 mmHg 91%
    09:00 -17°C° 0 mm 3 mps 754 mmHg 90%
    10:00 -16°C° 0 mm 3 mps 755 mmHg 89%
    11:00 -14°C° 0 mm 2 mps 756 mmHg 88%
    12:00 -13°C° 0 mm 2 mps 756 mmHg 86%
    13:00 -14°C° 0 mm 3 mps 756 mmHg 85%
    14:00 -13°C° 0 mm 3 mps 756 mmHg 83%
    15:00 -14°C° 0 mm 3 mps 756 mmHg 83%
    16:00 -15°C° 0 mm 3 mps 756 mmHg 83%
    17:00 -16°C° 0 mm 3 mps 756 mmHg 82%
    18:00 -16°C° 0 mm 4 mps 756 mmHg 81%
    19:00 -16°C° 0 mm 4 mps 756 mmHg 80%
    20:00 -15°C° 0 mm 4 mps 756 mmHg 79%
    21:00 -15°C° 0 mm 4 mps 756 mmHg 80%
    22:00 -15°C° 0 mm 4 mps 757 mmHg 81%
    23:00 -15°C° 0 mm 5 mps 757 mmHg 82%

    22 February, Friday

    Time Temperature Precipitation Wind Pressure Humidity
    00:00 -15°C° 0 mm 5 mps 757 mmHg 84%
    01:00 -15°C° 0 mm 5 mps 757 mmHg 86%
    02:00 -14°C° 0 mm 5 mps 758 mmHg 88%
    03:00 -15°C° 0 mm 4 mps 758 mmHg 89%
    04:00 -15°C° 0 mm 4 mps 759 mmHg 90%
    05:00 -15°C° 0 mm 4 mps 759 mmHg 90%
    06:00 -16°C° 0 mm 4 mps 760 mmHg 91%
    07:00 -15°C° 0 mm 3 mps 761 mmHg 91%
    08:00 -15°C° 0 mm 3 mps 761 mmHg 92%
    09:00 -14°C° 0 mm 3 mps 762 mmHg 91%
    10:00 -13°C° 0 mm 3 mps 763 mmHg 90%
    11:00 -12°C° 0 mm 3 mps 763 mmHg 90%
    12:00 -10°C° 0 mm 2 mps 763 mmHg 91%
    13:00 -9°C° 0 mm 1 mps 763 mmHg 92%
    14:00 -8°C° 0 mm 1 mps 763 mmHg 93%
    15:00 -9°C° 0 mm 1 mps 763 mmHg 92%
    16:00 -10°C° 0 mm 2 mps 763 mmHg 91%
    17:00 -12°C° 0 mm 2 mps 762 mmHg 90%
    18:00 -12°C° 0 mm 3 mps 761 mmHg 89%
    19:00 -12°C° 0 mm 4 mps 760 mmHg 88%
    20:00 -11°C° 0 mm 4 mps 759 mmHg 88%
    21:00 -11°C° 0.5 mm 5 mps 758 mmHg 90%
    22:00 -11°C° 0.5 mm 5 mps 756 mmHg 92%
    23:00 -10°C° 0.5 mm 6 mps 755 mmHg 93%
    Show more